Location: Harbor Island
(32.3990°N, 80.4435°W)
Time: 15:13:27
(UTC-04:00)

Daily predictions for brighter satellites

Satellite Brightness Start Highest point End
(mag) Time Altitude Azimuth Time Altitude Azimuth Time Altitude Azimuth
H-2A R/B 2.7 20:32:29 10° WSW 20:35:14 50° SSE 20:45:20 10° E
Meteosat 1 Rocket2 4.0 20:39:34 10° WSW 20:44:23 57° S 20:51:43 10° E
OAO 3 Rocket 4.3 20:42:22 10° SSW 20:46:30 26° SSE 20:50:37 10° E
NOSS 2-2 (C) 3.8 20:43:00 10° SW 20:47:00 71° WNW 20:51:26 10° NNE
Meteor 1-26 Rocket 4.4 20:41:14 10° N 20:47:08 86° E 20:53:02 10° S
Resurs 01 Rocket 3.0 20:47:35 10° S 20:51:44 41° W 20:55:55 10° NNW
Cosmos 1340 Rocket 3.3 20:54:43 10° SSW 20:58:40 67° W 21:02:41 10° N
SL-27 R/B 3.9 20:56:35 10° NNE 20:59:30 22° ENE 21:02:10 11° ESE
Cosmos 1356 Rocket 3.4 20:57:52 10° S 21:02:04 83° E 21:06:22 10° N
Cosmos 1892 2.6 20:58:30 10° S 21:02:18 77° E 21:06:09 10° N
PSLV R/B 4.1 21:01:21 10° NW 21:04:38 43° NNE 21:07:48 11° E
Envisat 4.2 21:05:53 11° ESE 21:09:39 25° ENE 21:13:43 10° NNE
SEDSat Delta rocket 4.0 21:07:38 10° SW 21:11:21 26° SSE 21:14:03 14° ESE
Cosmos 1782 3.6 21:08:08 10° NNE 21:11:47 32° E 21:14:51 13° SE
H-2A R/B 2.7 21:09:13 10° S 21:12:54 81° WSW 21:16:38 10° NNW
CZ-4 DEB 3.1 21:10:23 11° SSE 21:13:13 44° ENE 21:16:15 10° N
GPS 2-05 Rocket1 3.0 21:09:39 10° WSW 21:13:23 81° NNW 21:17:03 10° ENE
ERBS 2.4 21:11:42 10° NNW 21:15:08 64° NE 21:17:39 17° SE
Atlas Centaur 2 1.0 21:11:54 10° W 21:15:30 61° S 21:18:09 17° ESE
Abrixas rocket 3.6 21:13:57 10° WNW 21:17:03 32° SW 21:19:50 12° SSE
Coronas F rocket 2.5 21:15:30 10° SSW 21:18:02 44° W 21:20:35 10° N
Cosmos 1939 Rocket 3.8 21:17:48 16° ESE 21:20:06 29° ENE 21:23:30 10° NNE
Cosmos 2084 3.0 21:23:07 10° SSW 21:27:01 79° ESE 21:30:51 10° NNE
ERS-1 Rocket 3.1 21:22:39 13° SSE 21:27:05 56° ENE 21:32:01 10° N
Cosmos 1908 Rocket 3.9 21:23:18 10° SSE 21:27:28 45° E 21:31:42 10° NNE
CZ-3A R/B 3.9 21:04:02 10° W 21:29:30 48° SSW 21:33:02 19° SE
Cosmos 1733 Rocket 3.5 21:25:10 10° SSW 21:29:33 65° W 21:33:55 10° N
ATLAS 5 CENTAUR R/B 2.5 21:23:34 10° NNW 21:29:46 87° ENE 21:35:08 16° SSE
Cosmos 407 Rocket 3.8 21:26:31 10° N 21:31:39 50° ENE 21:35:07 20° SE
Meteor 2-6 Rocket 4.3 21:26:37 10° N 21:32:31 64° E 21:37:29 14° SSE
Cosmos 1378 Rocket 4.5 21:30:46 10° NNE 21:34:33 29° E 21:36:03 23° ESE
Cosmos 1452 Rocket 3.4 21:32:09 10° S 21:37:22 76° ESE 21:42:39 10° NNE
deb Chang Zheng 4 3.5 21:35:03 10° NNE 21:39:27 67° ESE 21:43:52 10° S
Cosmos 2154 Rocket 4.0 21:34:07 10° S 21:40:14 65° E 21:46:22 10° NNE
USA 234 4.2 21:38:07 10° ENE 21:43:03 23° ESE 21:47:56 10° S
COSMOS 2406 3.4 21:38:20 10° NNW 21:44:03 71° WSW 21:48:48 15° S
YAOGAN 6 4.3 21:44:08 18° ENE 21:44:08 18° ENE 21:46:28 10° NNE
Nimbus 7 Rocket 4.4 21:39:08 10° NNE 21:45:03 66° ESE 21:51:00 10° S
Cosmos 1408 2.7 21:43:50 30° SSE 21:45:19 49° E 21:48:52 10° NNE
Cosmos 1190 Rocket 3.9 21:41:06 10° NNW 21:46:19 89° ENE 21:49:53 21° SSE
YAOGAN 11 4.5 21:43:15 12° S 21:47:19 67° WSW 21:51:51 10° NNW
Cosmos 2278 Rocket 2.1 21:41:58 10° SSW 21:47:36 75° ESE 21:53:17 10° NNE
ALOS 4.1 21:43:46 10° SSW 21:47:47 29° W 21:51:50 10° NW
Cosmos 1825 2.1 21:47:48 27° SSE 21:49:38 60° E 21:53:25 10° NNE
SJ-11-01 4.4 21:46:16 15° S 21:50:08 78° WSW 21:54:54 10° NNW
Cosmos 1844 Rocket 3.8 21:45:23 10° SW 21:50:47 46° WNW 21:56:12 10° N
CZ-4B R/B 4.3 21:46:47 10° NE 21:50:56 28° E 21:51:12 27° ESE
Cosmos 1242 Rocket 4.4 21:48:25 10° NNE 21:50:30 18° ENE 21:50:30 18° ENE
Intercosmos 25 4.4 21:52:52 26° ENE 21:52:52 26° ENE 21:55:03 10° NE
Cosmos 1844 4.2 21:46:51 10° SSW 21:52:31 62° WNW 21:58:16 10° NNE
H-2A R/B 2.0 21:55:26 33° SSE 21:57:19 73° ENE 22:01:34 10° N
Cosmos 1184 Rocket 2.7 21:59:21 61° SE 21:59:43 69° E 22:03:03 10° NNE
Intelsat 3F5 C 4.3 21:57:05 10° WSW 21:59:54 52° SSW 21:59:54 52° SSW
CENTAUR R/B 3.9 21:58:27 10° NW 22:06:05 47° WSW 22:12:56 14° S
Cosmos 2082 Rocket 3.7 22:07:45 10° N 22:12:01 21° ENE 22:13:01 20° ENE
Terra 4.0 22:13:28 12° ENE 22:13:28 12° ENE 22:15:08 10° NE
EO 1 Delta rocket 4.4 22:07:28 10° N 22:13:13 66° WNW 22:17:42 12° SSW
ISS -0.4 22:12:10 10° W 22:14:36 19° NW 22:17:04 10° NNE
Cosmos 676 Rocket 4.0 22:11:44 10° NNW 22:16:57 81° WSW 22:18:53 40° S
Centaur D-1A AC-32 3.2 22:13:36 10° WSW 22:16:51 28° SSW 22:16:51 28° SSW
Cosmos 1862 4.3 22:14:21 14° SSW 22:17:34 45° W 22:21:30 10° N
SPOT 5 3.0 22:15:47 40° SSE 22:17:47 85° ENE 22:23:09 10° NNW
Cosmos 1238 Rocket 2.5 22:14:51 10° N 22:18:17 88° W 22:18:32 78° S
Cosmos 1174 3.8 22:16:06 10° NNW 22:18:30 50° NNW 22:18:30 50° NNW
Cosmos 1954 Rocket 3.9 22:16:27 10° NNW 22:21:42 84° ENE 22:23:04 51° SSE
Cosmos 2297 3.6 22:19:07 24° S 22:22:41 74° ESE 22:28:23 10° NNE
Okean 2 Rocket 3.2 22:25:23 43° SSW 22:26:45 74° W 22:31:09 10° N
COS B Rocket 4.3 22:24:29 10° NNW 22:28:11 39° W 22:29:13 31° WSW
Centaur AC-125 4.2 22:05:51 10° WSW 22:28:20 46° S 22:29:44 41° SSE
OAO 3 Rocket 3.1 22:24:47 10° WSW 22:29:45 80° SSE 22:30:20 68° E
NOAA 11 4.4 22:30:26 49° E 22:31:07 53° ENE 22:36:27 10° N
Okean 3 3.6 22:27:42 10° NNW 22:31:57 68° W 22:32:25 62° SW
Cosmos 1741 Rocket 4.3 22:30:05 10° N 22:35:09 50° ENE 22:35:16 50° ENE
Cosmos 2218 Rocket 4.0 22:33:57 48° SSE 22:35:44 69° E 22:42:06 10° NNE
Cosmos 1606 4.4 22:33:09 10° NNW 22:36:36 30° W 22:37:45 25° WSW
Cosmos 1023 Rocket 4.3 22:40:00 10° NNW 22:45:07 88° WSW 22:45:24 81° S
Meteosat 1 Rocket2 4.5 22:39:09 10° W 22:45:27 60° S 22:47:26 49° SE
SL-08 R/B 4.4 22:44:15 52° S 22:45:57 81° E 22:52:26 10° N
MetOp-B 4.4 22:46:20 48° SSW 22:47:34 61° WSW 22:52:52 10° NNW
BREEZE-M DEB (TANK) 3.5 22:39:41 10° NW 22:47:56 44° NNE 22:48:20 43° NE
Cosmos 1959 Rocket 4.3 22:50:04 54° S 22:51:36 87° W 22:57:44 10° N
COSMOS 2487 4.2 22:49:44 10° NNW 22:52:14 32° WNW 22:52:14 32° WNW
Cosmos 1727 Rocket 4.1 22:50:01 10° N 22:56:01 56° E 22:56:01 56° E
DNEPR-1 R/B 4.0 22:54:15 10° NNW 22:58:32 62° N 22:58:32 62° N
Meteor 2-19 Rocket 4.4 23:00:06 67° E 23:00:06 67° E 23:06:02 10° NNE
Cosmos 1975 Rocket 4.2 22:56:19 10° NNW 23:00:18 36° W 23:00:24 36° W
Atlas Centaur 2 3.9 23:00:43 10° W 23:00:48 11° W 23:00:48 11° W
ARGOS 3.2 23:05:13 70° WSW 23:05:18 70° WSW 23:10:39 10° NNW
Cosmos 614 Rocket 4.2 23:04:15 10° NNW 23:08:37 66° NW 23:08:37 66° NW
Meteor 1-20 Rocket 4.4 23:11:44 63° NNE 23:11:44 63° NNE 23:16:26 10° N
H-2A R/B 2.5 23:13:15 58° NNE 23:13:15 58° NNE 23:17:42 10° N
Meteor 2-8 Rocket 4.4 23:09:46 10° N 23:15:43 81° NE 23:15:43 81° NE
Cosmos 1140 Rocket 4.5 23:14:33 10° NW 23:19:08 38° W 23:19:08 38° W
Timation 2 Rocket 4.1 23:13:30 10° NNW 23:19:21 59° WSW 23:19:21 59° WSW
Cosmos 1339 Rocket 4.5 23:14:20 10° N 23:20:00 70° NE 23:20:00 70° NE
Meteor 1-25 Rocket 4.5 23:23:30 67° W 23:23:30 67° W 23:29:17 10° N
USA 234 3.3 23:19:47 10° NE 23:26:19 75° NW 23:30:49 22° SW
Cosmos 1833 Rocket 3.2 23:29:18 10° NNW 23:33:42 57° NNW 23:33:42 57° NNW
Terra 3.5 23:52:21 31° NW 23:52:21 31° NW 23:55:00 10° NNW
CZ-3C R/B 4.2 23:45:48 10° WSW 23:50:58 19° SW 23:50:58 19° SW
